Cloud_Cover
100 97 100 100 100 100 49 95 100 100 100 15 5 5 5 5 5 5 5 5 8 5 5 5 5 5 84 94 40 82 49 5 70 100 100 100 100 100 100 75 93 92 100
82 98 69 100 100 100 76 100 100 100 100 45 5 5 5 5 5 5 5 5 52 47 5 23 74 5 54 55 99 62 91 100 100 91 95 100 85 100 100 100 100 100 100
94 85 21 59 100 71 100 93 100 100 100 37 5 5 5 5 5 5 5 22 82 52 100 73 94 27 13 5 12 100 98 100 100 100 100 91 100 100 100 100 100 100 100
30 75 56 10 84 48 92 100 100 100 90 97 37 6 5 5 5 5 5 5 30 100 58 81 100 93 91 37 98 100 100 100 96 29 100 100 100 100 100 100 100 100 100
52 63 97 79 88 99 100 100 99 100 100 99 96 88 16 21 49 23 26 5 5 9 67 98 100 98 19 78 83 100 92 60 36 100 100 100 100 100 100 100 100 100 100
83 98 100 98 100 100 100 97 100 100 100 100 100 96 50 30 12 65 79 5 5 5 10 37 95 100 80 65 100 100 100 100 100 100 100 100 100 100 100 100 100 100 100
72 100 100 100 100 100 100 99 94 95 100 99 94 22 62 33 93 39 34 77 11 5 29 93 84 50 99 100 100 100 100 100 100 100 100 100 100 100 100 100 100 100 100
59 97 100 100 100 100 100 95 72 100 84 81 97 19 80 62 67 47 5 8 56 70 16 21 100 100 100 100 100 100 100 100 90 100 100 100 97 100 100 100 100 100 100
92 89 100 100 100 100 100 71 67 100 97 98 60 12 91 12 80 37 32 5 5 54 100 100 100 100 100 100 100 100 100 100 88 79 100 97 100 100 100 100 100 100 100
53 99 86 100 100 100 100 98 94 67 98 100 100 97 100 64 13 100 16 5 5 5 89 100 100 100 98 58 5 100 42 66 95 84 68 100 100 100 100 100 100 100 100
83 87 28 100 100 100 100 100 100 98 99 100 79 39 100 78 78 53 97 63 5 5 5 5 100 100 100 98 100 96 100 100 100 100 92 100 97 100 100 100 100 100 100
41 16 63 64 100 100 100 100 100 100 100 100 62 100 98 100 90 5 52 93 11 82 25 5 25 87 98 48 13 84 80 100 90 86 49 34 99 35 27 22 78 59 39
22 33 19 70 83 100 100 100 100 100 100 92 100 100 32 81 59 36 6 81 15 50 45 5 67 6 7 41 62 18 28 95 36 46 83 28 53 5 4 0 0 4 94
39 31 23 86 69 100 100 100 100 100 100 97 56 97 19 62 95 13 32 57 81 27 100 55 28 8 5 33 49 25 18 88 16 6 39 5 5 12 1 0 0 0 4
57 84 36 76 92 100 100 100 100 100 100 99 64 12 5 88 34 94 75 20 100 57 100 100 82 34 6 94 14 19 98 38 5 88 5 3 0 0 0 0 0 5 2
22 39 36 57 52 66 100 100 100 85 100 100 68 87 100 98 67 95 5 5 96 100 83 98 68 5 57 75 4 95 100 80 5 100 14 0 0 0 0 0 0 12 3
4 29 35 48 39 27 100 100 100 100 99 100 100 94 72 65 100 95 5 12 100 99 98 31 54 66 22 5 5 5 59 10 6 100 5 0 0 0 6 24 10 9 3
0 13 26 45 39 25 33 100 100 100 74 67 77 100 19 17 100 100 82 62 90 93 96 100 100 97 24 5 6 5 6 100 24 99 5 0 0 8 21 90 22 2 9
5 4 15 31 49 43 30 46 100 89 100 100 93 100 94 90 99 25 64 90 98 32 98 100 99 100 39 5 78 10 94 34 91 99 7 8 10 20 30 11 3 10 30
5 6 12 7 30 64 38 48 100 100 95 100 100 100 92 92 81 15 32 40 87 60 100 96 100 100 54 11 36 26 68 45 100 70 97 20 18 0 0 6 24 59 100
3 0 26 40 40 31 85 38 32 100 100 100 100 100 100 100 96 37 61 84 100 35 100 100 100 100 99 15 39 66 65 86 100 76 100 2 0 0 14 11 1 16 39
4 0 10 10 55 39 36 59 81 21 45 86 100 100 100 100 100 91 61 98 100 51 16 100 100 99 97 75 15 100 43 61 100 99 100 28 4 47 100 12 1 2 0
4 0 8 0 19 33 40 71 60 64 77 92 63 100 100 100 100 100 98 100 93 99 100 100 100 100 100 100 88 74 100 88 100 100 98 76 73 100 99 1 1 5 4
27 5 3 6 13 22 54 52 19 99 17 11 14 3 100 100 100 100 95 73 96 100 100 92 100 79 52 100 98 87 100 100 100 100 98 47 98 34 99 0 0 4 3
100 5 17 20 28 20 32 22 44 100 76 36 51 6 1 100 100 100 100 100 98 100 99 72 100 79 59 100 93 100 100 98 53 66 73 98 8 4 100 8 4 4 0
62 52 6 20 51 62 43 42 53 100 100 38 24 0 0 5 82 100 100 100 100 69 100 99 100 100 44 39 29 100 100 100 38 56 70 94 78 34 100 71 10 5 4